Weather Roundup
Issued by NWS

Home | Current Version | Previous Version | Text Only | Print | Product List | Glossary On
Versions: 1 2 3 4 5 6 7 8 9 10 11 12 13 14 15 16 17 18 19 20 21 22 23 24 25 26 27 28 29 30 31 32 33 34 35 36 37 38 39 40 41 42 43 44 45 46 47 48 49 50
000
NZUS93 KARX 291110
HRRWXR

CURRENT HOURLY OBSERVATIONS ACROSS
MUCH OF THE UPPER MISSISSIPPI VALLEY
NATIONAL WEATHER SERVICE LA CROSSE WI
600 AM CDT SAT AUG 29 2015


...SOUTHEAST MINNESOTA...


CITY           SKY/WX    TMP DP  RH WIND       PRES   REMARKS
ROCHESTER      FOG       58  57  97 NE6       30.02F VSB 1/4
ROCHESTER/MAYO CLOUDY    58  58 100 CALM      30.02S
WINONA         CLOUDY    59  57  94 NE3       30.02S
AUSTIN         FOG       61  57  88 NE3       30.02R VSB 1
ALBERT LEA     FOG       57  57 100 NE5       30.03R VSB 1/4
DODGE CENTER   FOG       55  55 100 CALM      30.02S VSB 1/4
PRESTON        CLOUDY    58  57  96 NE6       30.02R FOG
OWATONNA       CLOUDY    57  55  94 CALM      30.03S FOG
FARIBAULT      CLOUDY    57  55  94 CALM      30.04S FOG
$$

...ELSEWHERE IN MINNESOTA...


CITY           SKY/WX    TMP DP  RH WIND       PRES   REMARKS
MINNEAPOLIS    PTCLDY    57  54  89 E7        30.05R
INTNL FALLS    CLOUDY    66  63  90 VRB3      29.95R
DULUTH         CLOUDY    59  56  89 SW9       30.03F
RED WING       CLOUDY    57  55  94 E3        30.03R
REDWOOD FALLS  FOG       50  50 100 S3        30.04R VSB 1/4
MANKATO        CLOUDY    57  54  88 E5        30.03S VSB 1/4
WORTHINGTON    CLOUDY    52  48  87 CALM      30.05S VSB 1/4
FAIRMONT       CLOUDY    55  52  88 N5        30.03R VSB 1/2
$$

...SOUTHWEST WISCONSIN...


CITY           SKY/WX    TMP DP  RH WIND       PRES   REMARKS
LA CROSSE      CLOUDY    61  57  87 N3        30.01R
PRAIRIE DU CHI CLOUDY    63  62  96 CALM      29.96S
BOSCOBEL       CLOUDY    63  62  97 NE5       29.98R FOG
LONE ROCK      CLOUDY    63  61  93 E7        29.99S FOG
PLATTEVILLE    CLOUDY    64  64  99 SE3       29.97S
FORT MC COY    CLOUDY    58  57  94 E7        30.03R
CAMP DOUGLAS   CLOUDY    58  58 100 NE6       30.03R
VIROQUA        CLOUDY    58  58 100 NE7       30.00S
WIS DELLS      CLOUDY    59  57  95 E8        30.00S FOG
$$

...ELSEWHERE IN WISCONSIN...


CITY           SKY/WX    TMP DP  RH WIND       PRES   REMARKS
MILWAUKEE      LGT RAIN  60  58  92 NE7       30.06R FOG
MADISON        LGT RAIN  62  60  93 SE7       30.00S FOG
GREEN BAY      CLOUDY    60  58  92 NE5       30.08S FOG
EAU CLAIRE     CLOUDY    55  54  96 NE6       30.07R FOG
BLACK RVR FLS  CLOUDY    59  59 100 NE5       30.03R
MEDFORD        CLOUDY    54  54 100 NE5       30.10R FOG
WAUSAU         CLOUDY    58  55  90 CALM      30.07S
WIS RAPIDS     CLOUDY    59  56  89 E7        30.07R
MARSHFIELD     CLOUDY    59  55  87 E6        30.07R FOG
RICE LAKE      PTCLDY    53  51  95 N6        30.10R
$$

...NORTHEAST IOWA...


CITY           SKY/WX    TMP DP  RH WIND       PRES   REMARKS
DECORAH        FOG       61  61 100 VRB5      29.98S VSB 1
MASON CITY     FOG       60  60 100 N8        30.02R VSB 1/2
CHARLES CITY   CLOUDY    61  61 100 NE7       29.99R FOG
OELWEIN          N/A    N/A N/A N/A MISG      29.97R
$$

...ELSEWHERE IN IOWA...


CITY           SKY/WX    TMP DP  RH WIND       PRES   REMARKS
DES MOINES     CLOUDY    64  61  90 N9        29.96R
IOWA CITY      CLOUDY    67  67 100 CALM      29.96R
FORT DODGE     CLOUDY    59  55  88 N6        30.01R
$$

...NORTHERN ILLINOIS...


CITY           SKY/WX    TMP DP  RH WIND       PRES   REMARKS
CHICAGO-OHARE  RAIN      63  62  97 SE9       30.02F FOG
CHICAGO-MIDWAY LGT RAIN  67  61  81 E5        30.04S
MOLINE         CLOUDY    69  62  78 S3        29.95R
ROCKFORD       CLOUDY    64  61  90 SE14      29.99F
PEORIA         CLOUDY    69  62  78 S5        29.99S
$$

NOTE: "FAIR" INDICATES FEW OR NO CLOUDS BELOW 12,000 FEET WITH NO
SIGNIFICANT WEATHER AND/OR OBSTRUCTIONS TO VISIBILITY. WIND
SPEEDS ARE IN MILES-PER-HOUR.



USA.gov is the U.S. government's official web portal to all federal, state and local government web resources and services.